Perry, FL

8:01 AM EDT on July 22, 2017 (GMT -0400)
Perry

Weather History for K40J - March, 2012

Change the Weather History Date:

Tuesday, March 27, 2012

  Actual Average (KVLD) Record (KVLD)
Temperature  
Mean Temperature 68 °F -  
Max Temperature 87 °F 74 °F 88 °F (2012)
Min Temperature 51 °F 49 °F 33 °F (2006)
Cooling Degree Days 4    
Growing Degree Days 18 (Base 50)    
Moisture  
Dew Point 53 °F    
Average Humidity 63    
Maximum Humidity 93    
Minimum Humidity 23    
Precipitation  
Precipitation 0.00 in - - ()
Sea Level Pressure  
Sea Level Pressure 30.11 in    
Wind  
Wind Speed 2 mph (SSW)    
Max Wind Speed 13 mph    
Max Gust Speed 17 mph    
Averages and records for this station are not official NWS values.
T = Trace of Precipitation, MM = Missing Value Source: NWS Daily Summary

Daily Weather History Graph

Daily Weather History Graph

Search for Another Location

Airport or City:

Trip Planner

Search our weather history database for the weather conditions in past years. The results will help you decide how hot, cold, wet, or windy it might be!

Date:

Astronomy

Mar. 27, 2012 Rise Set
Actual Time 7:29 AM EDT 7:50 PM EDT
Civil Twilight 7:05 AM EDT 8:14 PM EDT
Nautical Twilight 6:37 AM EDT 8:42 PM EDT
Astronomical Twilight 6:08 AM EDT 9:10 PM EDT
Moon 10:19 AM EDT (3/27) No Moon Set
Length of Visible Light 13h 09m
Length of Day
12h 21m
Waxing Crescent, 22% of the Moon is Illuminated
Mar 27
Waxing Crescent
Mar 30
First Quarter
Apr 6
Full
Apr 13
Last Quarter
Apr 21
New

Hourly Weather History & Observations

Time (EDT) Temp. Heat Index Dew Point Humidity Pressure Visibility Wind Dir Wind Speed Gust Speed Precip Events Conditions
12:53 AM 55.9 °F - 54.0 °F 93% 30.03 in - Calm Calm - N/A   Unknown
1:53 AM 55.0 °F - 52.0 °F 89% 30.03 in - Calm Calm - N/A   Unknown
2:53 AM 54.0 °F - 51.1 °F 90% 30.03 in - Calm Calm - N/A   Unknown
3:53 AM 53.1 °F - 51.1 °F 93% 30.04 in - Calm Calm - N/A   Unknown
4:53 AM 52.0 °F - 50.0 °F 93% 30.03 in - Calm Calm - N/A   Unknown
5:53 AM 51.1 °F - 48.9 °F 92% 30.05 in - Calm Calm - N/A   Unknown
6:53 AM 51.1 °F - 48.0 °F 89% 30.07 in - Calm Calm - N/A   Unknown
7:53 AM 51.1 °F - 48.0 °F 89% 30.09 in - Calm Calm - N/A   Unknown
8:53 AM 59.0 °F - 55.0 °F 87% 30.12 in - Calm Calm - N/A   Unknown
9:53 AM 69.1 °F - 55.0 °F 61% 30.14 in - Variable 3.5 mph - N/A   Unknown
10:53 AM 75.0 °F - 55.9 °F 51% 30.16 in - Variable 3.5 mph - N/A   Unknown
11:53 AM 81.0 °F 80.5 °F 54.0 °F 39% 30.17 in - South 4.6 mph - N/A   Unknown
12:53 PM 82.9 °F - 48.9 °F 31% 30.16 in - Variable 5.8 mph - N/A   Unknown
1:53 PM 84.9 °F - 46.9 °F 27% 30.15 in - SSW 3.5 mph - N/A   Unknown
2:53 PM 86.0 °F - 44.1 °F 23% 30.12 in - South 4.6 mph 16.1 mph N/A   Unknown
3:53 PM 84.9 °F - 52.0 °F 32% 30.11 in - SSW 8.1 mph 17.3 mph N/A   Unknown
4:53 PM 82.9 °F 81.9 °F 54.0 °F 37% 30.11 in - SW 12.7 mph - N/A   Unknown
5:53 PM 82.0 °F 81.3 °F 54.0 °F 38% 30.11 in - WSW 8.1 mph - N/A   Unknown
6:53 PM 79.0 °F - 54.0 °F 42% 30.12 in - WSW 6.9 mph - N/A   Unknown
7:53 PM 72.0 °F - 55.0 °F 55% 30.14 in - SW 3.5 mph - N/A   Unknown
8:53 PM 66.9 °F - 55.9 °F 68% 30.15 in - Calm Calm - N/A   Unknown
9:53 PM 70.0 °F - 55.9 °F 61% 30.18 in - East 3.5 mph - N/A   Unknown
10:53 PM 70.0 °F - 57.9 °F 65% 30.19 in - East 5.8 mph - N/A   Unknown
11:53 PM 69.1 °F - 60.1 °F 73% 30.19 in - Variable 6.9 mph - N/A   Unknown